EZY61JA EGKK-LGSK

Flight info

Callsign EZY61JA
Flight time N/A
Altitude 37000
Route ODVIK Y311 DVR UL9 KONAN DCT KOK DCT RITAX DCT EDISA DCT KUNOD DCT GEDSO DCT GIMIX/N0442F390 DCT GORPA DCT DEVUL DCT LIKVI DCT REMSO DCT MEDUX UM867 KOGAT DCT ERANA DCT TSL UL617 IBIDI
Aircraft A320/M-SDE3FGHIRWY/LB1

Departure

Time N/A
Airport London Gatwick Airport (EGKK)

Arrival

Time 2026-04-27 19:02
Airport Skiathos Island National Airport (LGSK)
Time Latitude Longitude Altitude Speed Heading
2026-04-27 18:13 43.29362 19.22509 37093 ft 475 kts 134°
2026-04-27 18:13 43.27116 19.25829 37097 ft 475 kts 134°
2026-04-27 18:14 43.22633 19.32439 37099 ft 475 kts 134°
2026-04-27 18:14 43.18123 19.39087 37099 ft 475 kts 134°
2026-04-27 18:15 43.13618 19.45717 37102 ft 476 kts 134°
2026-04-27 18:15 43.09100 19.52341 37108 ft 476 kts 135°
2026-04-27 18:16 43.04582 19.58955 37107 ft 476 kts 135°
2026-04-27 18:16 43.00089 19.65519 37112 ft 476 kts 135°
2026-04-27 18:17 42.95543 19.72130 37115 ft 476 kts 135°
2026-04-27 18:17 42.91011 19.78704 37119 ft 476 kts 135°
2026-04-27 18:18 42.86464 19.85275 37117 ft 476 kts 135°
2026-04-27 18:18 42.81921 19.91843 37119 ft 476 kts 135°
2026-04-27 18:19 42.77380 19.98399 37131 ft 476 kts 135°
2026-04-27 18:19 42.72884 20.05004 37134 ft 476 kts 133°
2026-04-27 18:20 42.68772 20.11764 37142 ft 477 kts 130°
2026-04-27 18:20 42.66091 20.16371 37126 ft 477 kts 130°
2026-04-27 18:21 42.61977 20.23334 37125 ft 476 kts 131°
2026-04-27 18:21 42.58708 20.28722 37138 ft 478 kts 131°
2026-04-27 18:22 42.54461 20.35638 37151 ft 477 kts 131°
2026-04-27 18:22 42.50212 20.42549 37155 ft 477 kts 131°
2026-04-27 18:23 42.45996 20.49423 37156 ft 477 kts 131°
2026-04-27 18:23 42.41753 20.56342 37130 ft 478 kts 131°
2026-04-27 18:24 42.37488 20.63277 37110 ft 481 kts 131°
2026-04-27 18:24 42.33193 20.70243 37111 ft 483 kts 131°
2026-04-27 18:25 42.28876 20.77218 37109 ft 484 kts 131°
2026-04-27 18:25 42.24544 20.84218 37124 ft 486 kts 131°
2026-04-27 18:26 42.20207 20.91203 37128 ft 486 kts 131°
2026-04-27 18:26 42.15852 20.98192 37134 ft 487 kts 131°
2026-04-27 18:27 42.11475 21.05150 37141 ft 486 kts 135°
2026-04-27 18:27 42.06614 21.11449 37140 ft 485 kts 139°
2026-04-27 18:28 42.01708 21.17669 37130 ft 485 kts 139°
2026-04-27 18:28 41.96830 21.23850 37121 ft 485 kts 139°
2026-04-27 18:29 41.91891 21.30105 37122 ft 485 kts 138°
2026-04-27 18:29 41.87013 21.36274 37125 ft 485 kts 139°
2026-04-27 18:30 41.82089 21.42469 37129 ft 485 kts 139°
2026-04-27 18:30 41.77169 21.48644 37111 ft 484 kts 139°
2026-04-27 18:31 41.72245 21.54806 37125 ft 485 kts 139°
2026-04-27 18:31 41.67308 21.60981 37133 ft 485 kts 139°
2026-04-27 18:32 41.62373 21.67138 37141 ft 485 kts 139°
2026-04-27 18:32 41.57460 21.73251 37141 ft 486 kts 139°
2026-04-27 18:33 41.52515 21.79387 37147 ft 485 kts 139°
2026-04-27 18:33 41.47578 21.85513 37131 ft 485 kts 139°
2026-04-27 18:34 41.42634 21.91625 37128 ft 484 kts 139°
2026-04-27 18:34 41.37688 21.97728 37132 ft 484 kts 139°
2026-04-27 18:35 41.32745 22.03824 37135 ft 483 kts 139°
2026-04-27 18:35 41.27808 22.09898 37134 ft 483 kts 139°
2026-04-27 18:36 41.22874 22.15948 37125 ft 482 kts 139°
2026-04-27 18:36 41.17973 22.21941 37124 ft 483 kts 139°
2026-04-27 18:37 41.12936 22.27856 37133 ft 482 kts 142°
2026-04-27 18:37 41.07700 22.33434 37144 ft 482 kts 144°
2026-04-27 18:38 41.02418 22.38923 37136 ft 482 kts 144°
2026-04-27 18:38 40.97177 22.44482 37130 ft 483 kts 143°
2026-04-27 18:39 40.91965 22.50077 37132 ft 483 kts 143°
2026-04-27 18:39 40.86743 22.55681 37134 ft 483 kts 143°
2026-04-27 18:40 40.81535 22.61220 37144 ft 483 kts 143°
2026-04-27 18:40 40.76292 22.66782 37155 ft 484 kts 143°
2026-04-27 18:41 40.71049 22.72344 37141 ft 484 kts 143°
2026-04-27 18:41 40.65806 22.77904 37082 ft 485 kts 143°
2026-04-27 18:42 40.63177 22.80690 36650 ft 482 kts 143°
2026-04-27 18:42 40.62297 22.81622 36565 ft 479 kts 143°
2026-04-27 18:42 40.57998 22.86155 36139 ft 474 kts 144°
2026-04-27 18:42 40.55428 22.88858 35878 ft 474 kts 144°
2026-04-27 18:43 40.52855 22.91564 35607 ft 474 kts 144°
2026-04-27 18:43 40.50269 22.94277 34603 ft 481 kts 144°
2026-04-27 18:43 40.47626 22.97001 33639 ft 483 kts 147°
2026-04-27 18:43 40.45758 22.98613 32892 ft 485 kts 152°
2026-04-27 18:44 40.42736 23.00569 31790 ft 486 kts 161°
2026-04-27 18:44 40.39558 23.02147 30737 ft 488 kts 162°
2026-04-27 18:44 40.36391 23.03713 30028 ft 483 kts 162°
2026-04-27 18:44 40.33261 23.05271 29297 ft 477 kts 162°
2026-04-27 18:45 40.30182 23.06808 28606 ft 470 kts 162°
2026-04-27 18:45 40.27145 23.08324 27908 ft 463 kts 162°
2026-04-27 18:45 40.24155 23.09816 27245 ft 457 kts 162°
2026-04-27 18:45 40.21193 23.11289 26587 ft 452 kts 162°
2026-04-27 18:46 40.18270 23.12738 25937 ft 447 kts 162°
2026-04-27 18:46 40.15414 23.14150 25302 ft 442 kts 162°
2026-04-27 18:46 40.12541 23.15567 24669 ft 438 kts 162°
2026-04-27 18:46 40.09714 23.16959 24053 ft 434 kts 163°
2026-04-27 18:47 40.06898 23.18347 23398 ft 429 kts 162°
2026-04-27 18:47 40.04119 23.19719 22817 ft 422 kts 162°
2026-04-27 18:47 40.01394 23.21064 22284 ft 415 kts 162°
2026-04-27 18:47 39.98716 23.22386 21763 ft 409 kts 162°
2026-04-27 18:48 39.96072 23.23686 21281 ft 402 kts 162°
2026-04-27 18:48 39.93475 23.24963 20798 ft 396 kts 162°
2026-04-27 18:48 39.90911 23.26221 20310 ft 391 kts 162°
2026-04-27 18:48 39.88379 23.27464 19830 ft 386 kts 162°
2026-04-27 18:49 39.85876 23.28694 19339 ft 382 kts 162°
2026-04-27 18:49 39.83433 23.29889 18862 ft 379 kts 163°
2026-04-27 18:49 39.80973 23.31088 18345 ft 376 kts 163°
2026-04-27 18:49 39.78536 23.32277 17815 ft 373 kts 162°
2026-04-27 18:50 39.76117 23.33461 17306 ft 369 kts 162°
2026-04-27 18:50 39.73728 23.34630 16808 ft 366 kts 162°
2026-04-27 18:50 39.71352 23.35789 16305 ft 364 kts 162°
2026-04-27 18:50 39.68989 23.36941 15809 ft 362 kts 162°
2026-04-27 18:51 39.66643 23.38084 15308 ft 360 kts 162°
2026-04-27 18:51 39.64305 23.39222 14805 ft 358 kts 162°
2026-04-27 18:51 39.61979 23.40353 14301 ft 357 kts 162°
2026-04-27 18:51 39.59660 23.41480 13769 ft 355 kts 162°
2026-04-27 18:52 39.57353 23.42602 13238 ft 353 kts 161°
2026-04-27 18:52 39.55064 23.43716 12732 ft 350 kts 162°
2026-04-27 18:52 39.52785 23.44821 12205 ft 348 kts 161°
2026-04-27 18:53 39.48284 23.47000 11162 ft 344 kts 161°
2026-04-27 18:53 39.46043 23.48083 10708 ft 340 kts 161°
2026-04-27 18:53 39.43875 23.49135 10596 ft 326 kts 161°
2026-04-27 18:53 39.41798 23.50143 10429 ft 309 kts 161°
2026-04-27 18:54 39.39818 23.51102 9978 ft 301 kts 161°
2026-04-27 18:54 39.37872 23.52039 9842 ft 298 kts 161°
2026-04-27 18:54 39.35930 23.52973 9643 ft 298 kts 161°
2026-04-27 18:54 39.33992 23.53906 9129 ft 296 kts 161°
2026-04-27 18:55 39.32074 23.54831 8521 ft 293 kts 161°
2026-04-27 18:55 39.30163 23.55756 7909 ft 292 kts 161°
2026-04-27 18:55 39.28280 23.56669 7322 ft 287 kts 160°
2026-04-27 18:55 39.26452 23.57553 6926 ft 273 kts 160°
2026-04-27 18:56 39.24711 23.58394 6561 ft 261 kts 160°
2026-04-27 18:56 39.23045 23.59197 6180 ft 250 kts 160°
2026-04-27 18:56 39.21453 23.59962 5807 ft 240 kts 160°
2026-04-27 18:56 39.19916 23.60653 5429 ft 233 kts 167°
2026-04-27 18:57 39.18337 23.60893 5034 ft 228 kts 181°
2026-04-27 18:57 39.16770 23.60593 4528 ft 231 kts 195°
2026-04-27 18:57 39.15290 23.59786 4019 ft 232 kts 206°
2026-04-27 18:57 39.13850 23.58836 3511 ft 231 kts 205°
2026-04-27 18:58 39.12409 23.57888 3197 ft 231 kts 205°
2026-04-27 18:58 39.11008 23.56967 2843 ft 220 kts 205°
2026-04-27 18:58 39.09707 23.56070 2576 ft 204 kts 213°
2026-04-27 18:58 39.08746 23.54800 2434 ft 197 kts 237°
2026-04-27 18:59 39.08232 23.53208 2192 ft 191 kts 258°
2026-04-27 18:59 39.08147 23.51528 2149 ft 187 kts 277°
2026-04-27 18:59 39.08450 23.49917 2042 ft 184 kts 295°
2026-04-27 18:59 39.09125 23.48549 1849 ft 179 kts 317°
2026-04-27 19:00 39.10143 23.47722 1676 ft 167 kts 346°
2026-04-27 19:00 39.11249 23.47600 1400 ft 158 kts
2026-04-27 19:00 39.12296 23.47921 1100 ft 147 kts 24°
2026-04-27 19:00 39.13225 23.48324 903 ft 137 kts 19°
2026-04-27 19:01 39.14106 23.48743 634 ft 131 kts 25°
2026-04-27 19:01 39.14967 23.49132 454 ft 131 kts 22°
2026-04-27 19:01 39.15814 23.49528 257 ft 132 kts 18°
2026-04-27 19:01 39.16668 23.49902 88 ft 127 kts 19°
2026-04-27 19:02 39.17462 23.50257 41 ft 114 kts 19°
2026-04-27 19:02 39.17970 23.50485 42 ft 33 kts 19°
2026-04-27 19:02 39.18035 23.50505 48 ft 0 kts 56°
2026-04-27 19:02 39.18009 23.50497 47 ft 8 kts 217°
2026-04-27 19:03 39.17947 23.50455 39 ft 12 kts 225°
2026-04-27 19:03 39.17923 23.50366 42 ft 9 kts 261°